You are here:
  • Home »
  • Tender »
  • Open Tender Enquiry

Open Tender Enquiry

4000-3901 3900-3801 3800-3701 3700-3601 3600-3501 3500-3401 3400-3301 3300-3201 3200-3101 3100-3001 3000-2901
2900-2801 2800-2701 2700-2601 2600-2501 2500-2401 2400-2301 2300-2201 2200-2101
2100-2001 2000-1901 1900-1801 1800-1701 1700-1601 1600-1501 1500-1401 1400-1301
1300-1201 1200-1101 1100-1001 1000-901 900-801 800-701 700-601 600-501
500-401 400-301 300-201 200-101 100-1 1300-1251 1250-1201 1200-1151
1150-1101 1100-1051 1050-1001 1000-951 950-901 900-851 850-801 800-751
750-701 700-651 650-601 600-551 550-501 500-451 450-401 400-351
350-301 300-251 250-201 200-151 150-101 100-51 50-01

Sl.No. Enquiry No. Date Due on Short Description
3801 1 /PE180654/8 09.03.2018 12.04.2018 MMC Card
3802 1/PE180658/8 09.03.2018 12.04.2018 Switch Socket
3803 1-PE180265-1- 15.02.2018 10.04.2018 PVC Insulated round wire
3804 1-PE180298-1- 02.03.2018 06.04.2018 Control Panel Unit
3805 1-PE180302-1 02.03.2018 10.04.2018 Induction motor
3806 1-PE180327-1 05.03.2018 10.04.2018 Voltas make Air conditioner
3807 1-PE180335-1 07.03.2018 17.04.2018 BI-metal hole cutter HSS drill
3808 1-PE180340-1 08.032018 23.03.2018 Water coolers
3809 1-PE180343-1 08.03.2018 20.03.2018 All in one printer
3810 1-PE180345-1 08.03.2018 10.04.2018 Spares for Vacuum circuit breaker
3811 1-PE180346-1 08.03.2018 10.04.2018 LED Tube lights
3812 2-PE180305-1 02.03.2018 06.04.2018 Oil seals
3813 2-PE180306-1 02.03.2018 06.04.2018 Spares for single deck
3814 2-PE180318-1 03.03.2018 10.04.2018 Oil circulation gear pump and its spares
3815 2-PE180338-1 07.03.2018 10.04.2018 Digital Multi meters
3816 2-PE180347-1 09.03.2018 13.04.2018 EOT Crane spares
3817 3-PE180301-1 02.03.2018 06.04.2018 Bag Slitting machine Top & Bottom knife assy
3818 3-PE180304-1 02.03.2018 06.04.2018 Micom Relay, make Schneider/Areva
3819 1-PE180344-1 08.03.2018 20.04.2018 Insulation Meggar(Hand Driven)
3820 1-PE180361-1 12.03.2018 24.04.2018 Canteen Coupons
3821 1-PE180362-1 13.03.2018 20.03.2018 Closing Coli set
3822 2-PE180363-1 13.03.2018 20.03.2018 FRP (Polyester)
cooling tower with accessories
3823 2-PE180144-1 corrigendum-1 13.03.2018 23.03.2018 Inclinometer system
3824 3/PE180150/7 27/02/2018 29/03/2018 G.I.SOCKET HEAVY DUTY
3825 3/PE180151/7 27/02/2018 29/03/2018 G.I.NIPPLE HEAVY DUTY
3826 3/PE180153/7 27/02/2018 29/03/2018 G.I.PLUG
3827 3/PE180148/7 27/02/2018 29/03/2018 G.I.BEND HEAVY DUTY
3828 3/PE180147/7 27/02/2018 29/03/2018 G.I.ELBOW HEAVY DUTY
3829 3/PE180123/1 27/02/2018 29/03/2018 ALUMINIUM PAINT
3830 3/PE180146/7 27/02/2018 29/03/2018 G.I.SOCKET HEAVY DUTY
3831 3/PE180524/8 27/02/2018 29/03/2018 FUEL FILTER ASSY.
3832 3/PE180522/8 27/02/2018 29/03/2018 RUST CLEANER COMPOUND
3833 3/PE180518/8 27/02/2018 29/03/2018 SHROUDED DSL BUSBAR SYSTEM
3834 3/PE180122/1 27/02/2018 29/03/2018 G.I.BEND
3835 3/PE180280/8 27/02/2018 29/03/2018 SPARES FOR LPDT EJC 30SX
3836 3/PE180120/1 27/02/2018 29/03/2018 SHOCK ABSORBER
3837 3/PE180521/8 27/02/2018 29/03/2018 DISCHARGE COVER
3838 3/PE180525/8 27/02/2018 29/03/2018 150 AMP HOUR
3839 3/PE180091/7 07/03/2018 09/04/2018 STAR-DELTA CONNECTION SET
3840 3/PE180110/8 07/03/2018 09/04/2018 AIR FILTER
3841 3/PE180196/8 07/03/2018 09/04/2018 SPARES FOR NORMET MULTIMEC
3842 3/PE180198/8 07/03/2018 09/04/2018 DRIVE LINE
3843 3/PE180199/8 07/03/2018 09/04/2018 DOGBONE ASSY.
3844 3/PE180110/7 07/03/2018 09/04/2018 TRANSFORMER OIL
3845 3/PE180424/8 07/03/2018 09/04/2018 SAL PLANKS
3846 3/PE180078/1 07/03/2018 09/04/2018 CHALK MATTI
3847 3/PE180425/8 07/03/2018 09/04/2018 COOPER NAIL
3848 3/PE180423/8 07/03/2018 09/04/2018 PULLEY IDLER
3849 3/PE180205/8 07/03/2018 09/04/2018 WATER LEVEL CONTROLLER
3850 3/PE180429/8 07/03/2018 09/04/2018 SYN. ENAMEL PAINT
3851 2/PE180180/1 14/03/2018 16/04/2018 JOCKEY FIRE PUMP
3852 2/PE180004/8 12/03/2018 17/04/2018 FLEXIBLE DRIVE COUPLING
3853 2/PE180005/8 12/03/2018 17/04/2018 MSERW BLACK PIPE
3854 2/PE180006/8 12/03/2018 17/04/2018 SPARE FOR KSB PUMP
3855 2/PE180008/8 12/03/2018 17/04/2018 PHOTO REGISTER
3856 2/PE180268/8 12/03/2018 17/04/2018 POWER SUPPLY CARD
3857 2/PE180255/8 12/03/2018 17/04/2018 SPARE FOR TENOVA AGITATOR
3858 2/PE172305/8 12/03/2018 17/04/2018 SPARE FOR QVC PUMP
3859 2/PE180285/8 12/03/2018 17/04/2018 NEUPRONE RUBBER GASKET
3860 2/PE180002/8 12/03/2018 17/04/2018 COOLING TUBE
3861 2/PE180286/8 12/03/2018 17/04/2018 WATER BOOSTER PUMP
3862 2/PE180007/8 12/03/2018 17/04/2018 SPARE FOR HYDROCYCLONE
3863 2/PE180003/8 12/03/2018 17/04/2018 MAGNESE STEEL LINER STRIPS
3864 1/PE180668/8 13.04.2018 17.04.2018 UPS & Printer
3865 1/PE180670/8 13.04.2018 17.04.2018 Electrode
3866 1/PE180671/8 13.04.2018 17.04.2018 Electrode
3867 1/PE180674/8 13.04.2018 17.04.2018 Induction Motor
3868 1/PE180676/8 13.04.2018 17.04.2018 Surf Excel
3869 1/PE180685/8 13.04.2018 17.04.2018 Printing Items
3870 1/PE180686/8 13.04.2018 17.04.2018 Printing Items
3871 1/PE180694/8 13.04.2018 17.04.2018 Bearing
3872 1/PE180695/8 13.04.2018 17.04.2018 capacitor
3873 1/PE180697/8 13.04.2018 17.04.2018 Casing
3874 1/172563/8 13.04.2018 Cancelled Enquiry UPS & Printer
3875 1-PE180307-1- 02.03.2018 06.04.2018 Spherical Rolling bearing
3876 1-PE180309-1- 03.03.2018 10.04.2018 Fire Protection System for Cables
3877 1-PE180316-1- 03.03.2018 10.04.2018 HWC truck with VCU with latching
3878 1-PE180324-1 05.03.2018 10.04.2018 Power /fixed, moving contactor
3879 1-PE180341-1 08.03.2018 10.04.2018 ABB make power contactor
3880 1-PE180358-1 12.03.2018 27.03.2018 Conveyor belt patches & Repair Strips
3881 2-PE180278-1- 24.02.2018 03.04.2018 BREVENI / STM / ROSSI / SEW EURODRIVE / DYNAMIC oil GEARBOX
3882 2-PE180288-1- 28.02.2018 03.04.2018 Radio Systems and Walkie talkie batteries
3883 2-PE180300-1 02.03.2018 06.04.2018 PBL Make Gear Box spares
3884 3-PE180297-1 02.03.2018 06.04.2018 Carbon brushes for slip ring type of motors
3885 1-PE180349-1 09.03.2018 17.04.2018 Alarm Annunciater
3886 1-PE180353-1 12.03.2018 13.04.2018 Annunciater Unit
3887 1-PE180354-1 12.03.2018 13.04.2018 Aux. relay /Flasher relay
3888 1-PE180355-1 14.03.2018 24.04.2018 Air Conditioners
3889 1-PE180356-1- 12.03.2018 20.04.2018 Turkish Towels
3890 2-PE180227-1 13.02.2018 23.03.2018 Heavy Duty vertical sumo pump
3891 2-PE180365-1- 13.03.2018 24.04.2018 Double Air bellows
3892 2-PE180366-1- 13.03.2018 24.04.2018 VW Peizometer with accessories
3893 2-PE180367-1- 13.03.2018 13.04.2018 PA System call station
3894 1-PE180134-1 Corrigendum-1 13.03.2018 23.03.2018 Light Weight lap tap
3895 2-PE180143-1 Corrigendum-1 13.03.2018 23.03.2018 Gp housing/Camera lens
3896 2-PE170905-8 19.08.2017 02.04.2018 In-Vehicle Telematic unit
2-PE170905-8 02.04.2017 20.06.2018 In-Vehicle Telematic unit
3897 2-PE180113-1 08.03.2018 18.04.2018 Discharge Well
3898 2-PE180127-1 08.03.2018 18.04.2018 Bare shaft Fuel oil pump with coupling
3899 2-PE180128-1 08.03.2018 18.04.2018 Silica Crucible without Lid
3900 2-PE180149-1 08.03.2018 18.04.2018 Spare Card for Emerson UPS